Time,TemperatureF,DewpointF,PressureIn,WindDirection,WindDirectionDegrees,WindSpeedMPH,WindSpeedGustMPH,Humidity,HourlyPrecipIn,Conditions,Clouds,dailyrainin,SoftwareType,DateUTC
2013-01-15 00:10:00,53.5,48.0,30.26,SW,229,0.0,4.0,82,0.00,,,0.00,weatherlink.com 1.10,2013-01-14 22:10:00,
2013-01-15 00:25:00,53.3,48.0,30.25,SSE,149,1.0,4.0,82,0.00,,,0.00,weatherlink.com 1.10,2013-01-14 22:25:00,
2013-01-15 00:40:00,53.5,48.0,30.25,SSE,147,5.0,6.0,80,0.00,,,0.00,weatherlink.com 1.10,2013-01-14 22:40:00,
2013-01-15 00:55:00,53.8,48.0,30.25,SSW,195,0.0,7.0,80,0.00,,,0.00,weatherlink.com 1.10,2013-01-14 22:55:00,
2013-01-15 01:10:00,53.3,48.0,30.24,SSW,209,2.0,6.0,82,0.00,,,0.00,weatherlink.com 1.10,2013-01-14 23:10:00,
2013-01-15 01:25:00,53.3,48.0,30.24,SSW,192,3.0,6.0,82,0.00,,,0.00,weatherlink.com 1.10,2013-01-14 23:25:00,
2013-01-15 01:40:00,53.8,47.0,30.24,SSW,212,0.0,5.0,78,0.00,,,0.00,weatherlink.com 1.10,2013-01-14 23:40:00,
2013-01-15 01:55:00,53.2,47.0,30.24,South,187,0.0,5.0,78,0.00,,,0.00,weatherlink.com 1.10,2013-01-14 23:55:00,
2013-01-15 02:10:00,53.2,47.0,30.24,West,269,0.0,3.0,78,0.00,,,0.00,weatherlink.com 1.10,2013-01-15 00:10:00,
2013-01-15 02:25:00,52.6,46.0,30.24,West,272,0.0,0.0,78,0.00,,,0.00,weatherlink.com 1.10,2013-01-15 00:25:00,
2013-01-15 02:40:00,52.4,46.0,30.24,ESE,117,1.0,6.0,79,0.00,,,0.00,weatherlink.com 1.10,2013-01-15 00:40:00,
2013-01-15 02:55:00,53.0,46.0,30.24,South,180,0.0,5.0,78,0.00,,,0.00,weatherlink.com 1.10,2013-01-15 00:55:00,
2013-01-15 03:10:00,53.0,47.0,30.24,SSE,149,1.0,5.0,80,0.00,,,0.00,weatherlink.com 1.10,2013-01-15 01:10:00,
2013-01-15 03:25:00,52.6,47.0,30.24,South,171,0.0,5.0,81,0.00,,,0.00,weatherlink.com 1.10,2013-01-15 01:25:00,
2013-01-15 03:40:00,52.8,47.0,30.23,SSE,153,0.0,5.0,81,0.00,,,0.00,weatherlink.com 1.10,2013-01-15 01:40:00,
2013-01-15 03:55:00,52.8,47.0,30.23,SSW,192,2.0,5.0,81,0.00,,,0.00,weatherlink.com 1.10,2013-01-15 01:55:00,
2013-01-15 04:10:00,53.0,47.0,30.23,SE,141,0.0,7.0,81,0.00,,,0.00,weatherlink.com 1.10,2013-01-15 02:10:00,
2013-01-15 04:25:00,53.2,48.0,30.23,SSE,155,5.0,6.0,81,0.00,,,0.00,weatherlink.com 1.10,2013-01-15 02:25:00,
2013-01-15 04:40:00,53.1,47.0,30.22,SSE,159,0.0,6.0,81,0.00,,,0.00,weatherlink.com 1.10,2013-01-15 02:40:00,
2013-01-15 04:55:00,53.3,48.0,30.22,South,191,0.0,6.0,81,0.00,,,0.00,weatherlink.com 1.10,2013-01-15 02:55:00,
2013-01-15 05:10:00,53.1,47.0,30.22,South,173,0.0,4.0,81,0.00,,,0.00,weatherlink.com 1.10,2013-01-15 03:10:00,
2013-01-15 05:26:00,52.9,48.0,30.22,SSE,166,0.0,4.0,82,0.00,,,0.00,weatherlink.com 1.10,2013-01-15 03:26:00,
2013-01-15 05:41:00,53.2,48.0,30.22,South,175,3.0,4.0,82,0.00,,,0.00,weatherlink.com 1.10,2013-01-15 03:41:00,
2013-01-15 05:56:00,53.1,48.0,30.21,South,175,0.0,4.0,82,0.00,,,0.00,weatherlink.com 1.10,2013-01-15 03:56:00,
2013-01-15 06:11:00,53.2,48.0,30.22,South,169,0.0,2.0,82,0.00,,,0.00,weatherlink.com 1.10,2013-01-15 04:11:00,
2013-01-15 06:26:00,53.4,48.0,30.22,SSE,147,0.0,4.0,81,0.00,,,0.00,weatherlink.com 1.10,2013-01-15 04:26:00,
2013-01-15 06:41:00,53.6,48.0,30.22,SSE,153,0.0,3.0,80,0.00,,,0.00,weatherlink.com 1.10,2013-01-15 04:41:00,
2013-01-15 06:56:00,53.5,48.0,30.22,SSE,163,1.0,3.0,81,0.00,,,0.00,weatherlink.com 1.10,2013-01-15 04:56:00,
2013-01-15 07:11:00,53.3,48.0,30.22,SSE,159,0.0,4.0,82,0.00,,,0.00,weatherlink.com 1.10,2013-01-15 05:11:00,
2013-01-15 07:26:00,53.1,48.0,30.22,SSE,160,0.0,3.0,83,0.00,,,0.00,weatherlink.com 1.10,2013-01-15 05:26:00,
2013-01-15 07:41:00,52.9,48.0,30.22,SSE,155,2.0,4.0,83,0.00,,,0.00,weatherlink.com 1.10,2013-01-15 05:41:00,
2013-01-15 07:56:00,53.3,48.0,30.22,SE,140,2.0,3.0,83,0.00,,,0.00,weatherlink.com 1.10,2013-01-15 05:56:00,
2013-01-15 08:11:00,53.5,49.0,30.22,South,169,0.0,3.0,83,0.00,,,0.00,weatherlink.com 1.10,2013-01-15 06:11:00,
2013-01-15 08:26:00,53.5,49.0,30.22,SSE,158,0.0,3.0,83,0.00,,,0.00,weatherlink.com 1.10,2013-01-15 06:26:00,
2013-01-15 08:41:00,53.3,49.0,30.22,SE,146,0.0,4.0,84,0.00,,,0.00,weatherlink.com 1.10,2013-01-15 06:41:00,
2013-01-15 08:56:00,54.0,49.0,30.22,SSE,167,0.0,4.0,83,0.00,,,0.00,weatherlink.com 1.10,2013-01-15 06:56:00,
2013-01-15 09:11:00,54.7,49.0,30.22,South,180,0.0,6.0,82,0.00,,,0.00,weatherlink.com 1.10,2013-01-15 07:11:00,
2013-01-15 09:26:00,55.1,49.0,30.22,SE,132,0.0,6.0,81,0.00,,,0.00,weatherlink.com 1.10,2013-01-15 07:26:00,
2013-01-15 09:41:00,55.6,50.0,30.21,SSE,159,2.0,5.0,80,0.00,,,0.00,weatherlink.com 1.10,2013-01-15 07:41:00,
2013-01-15 09:56:00,55.8,49.0,30.21,SSE,158,5.0,7.0,78,0.00,,,0.00,weatherlink.com 1.10,2013-01-15 07:56:00,
2013-01-15 10:11:00,56.4,50.0,30.21,SE,144,5.0,6.0,78,0.00,,,0.00,weatherlink.com 1.10,2013-01-15 08:11:00,
2013-01-15 10:26:00,57.1,49.0,30.21,SSW,202,2.0,12.0,73,0.00,,,0.00,weatherlink.com 1.10,2013-01-15 08:26:00,
2013-01-15 10:41:00,57.4,48.0,30.21,SW,220,4.0,10.0,71,0.00,,,0.00,weatherlink.com 1.10,2013-01-15 08:41:00,
2013-01-15 10:56:00,57.7,49.0,30.20,SE,145,3.0,11.0,73,0.00,,,0.00,weatherlink.com 1.10,2013-01-15 08:56:00,
2013-01-15 11:11:00,58.0,49.0,30.20,SSW,213,7.0,13.0,72,0.00,,,0.00,weatherlink.com 1.10,2013-01-15 09:11:00,
2013-01-15 11:26:00,57.4,48.0,30.19,SE,133,5.0,14.0,71,0.00,,,0.00,weatherlink.com 1.10,2013-01-15 09:26:00,
2013-01-15 11:41:00,57.1,49.0,30.19,SSE,161,2.0,9.0,74,0.00,,,0.00,weatherlink.com 1.10,2013-01-15 09:41:00,
2013-01-15 11:56:00,57.3,49.0,30.18,West,271,0.0,11.0,75,0.00,,,0.00,weatherlink.com 1.10,2013-01-15 09:56:00,
2013-01-15 12:11:00,57.1,49.0,30.18,SW,218,6.0,13.0,75,0.00,,,0.00,weatherlink.com 1.10,2013-01-15 10:11:00,
2013-01-15 12:26:00,57.0,50.0,30.17,SSE,163,4.0,11.0,77,0.00,,,0.00,weatherlink.com 1.10,2013-01-15 10:26:00,
2013-01-15 12:41:00,57.8,51.0,30.16,SSW,209,5.0,11.0,77,0.00,,,0.00,weatherlink.com 1.10,2013-01-15 10:41:00,
2013-01-15 12:56:00,57.6,50.0,30.16,SSW,200,6.0,14.0,76,0.00,,,0.00,weatherlink.com 1.10,2013-01-15 10:56:00,
2013-01-15 13:11:00,57.7,51.0,30.15,SW,223,8.0,12.0,78,0.00,,,0.00,weatherlink.com 1.10,2013-01-15 11:11:00,
2013-01-15 13:26:00,57.6,51.0,30.14,SW,219,1.0,8.0,79,0.00,,,0.00,weatherlink.com 1.10,2013-01-15 11:26:00,
2013-01-15 13:41:00,57.8,50.0,30.14,WSW,241,2.0,11.0,76,0.00,,,0.00,weatherlink.com 1.10,2013-01-15 11:41:00,
2013-01-15 13:56:00,57.9,50.0,30.14,SSE,154,2.0,12.0,75,0.00,,,0.00,weatherlink.com 1.10,2013-01-15 11:56:00,
2013-01-15 14:11:00,58.0,50.0,30.14,South,187,1.0,14.0,75,0.00,,,0.00,weatherlink.com 1.10,2013-01-15 12:11:00,
2013-01-15 14:26:00,57.8,51.0,30.13,SSW,202,3.0,16.0,78,0.00,,,0.00,weatherlink.com 1.10,2013-01-15 12:26:00,
2013-01-15 14:41:00,57.9,51.0,30.12,South,169,3.0,15.0,77,0.00,,,0.00,weatherlink.com 1.10,2013-01-15 12:41:00,
2013-01-15 14:56:00,58.2,51.0,30.12,SW,215,6.0,13.0,76,0.00,,,0.00,weatherlink.com 1.10,2013-01-15 12:56:00,
2013-01-15 15:11:00,58.4,51.0,30.12,SW,223,13.0,16.0,75,0.00,,,0.00,weatherlink.com 1.10,2013-01-15 13:11:00,
2013-01-15 15:26:00,57.9,50.0,30.12,South,188,10.0,17.0,76,0.00,,,0.00,weatherlink.com 1.10,2013-01-15 13:26:00,
2013-01-15 15:41:00,57.8,51.0,30.12,South,175,5.0,19.0,79,0.00,,,0.00,weatherlink.com 1.10,2013-01-15 13:41:00,
2013-01-15 15:56:00,57.8,50.0,30.12,SE,140,7.0,15.0,75,0.00,,,0.00,weatherlink.com 1.10,2013-01-15 13:56:00,
2013-01-15 16:11:00,57.2,51.0,30.11,SSE,148,4.0,17.0,79,0.00,,,0.00,weatherlink.com 1.10,2013-01-15 14:11:00,
2013-01-15 16:26:00,57.3,51.0,30.11,South,184,4.0,16.0,80,0.00,,,0.00,weatherlink.com 1.10,2013-01-15 14:26:00,
2013-01-15 16:41:00,57.2,51.0,30.11,ESE,105,2.0,14.0,80,0.00,,,0.00,weatherlink.com 1.10,2013-01-15 14:41:00,
2013-01-15 16:56:00,56.9,51.0,30.11,SSE,153,11.0,16.0,81,0.00,,,0.00,weatherlink.com 1.10,2013-01-15 14:56:00,
2013-01-15 17:11:00,56.6,51.0,30.11,SSE,163,5.0,15.0,80,0.00,,,0.00,weatherlink.com 1.10,2013-01-15 15:11:00,
2013-01-15 17:26:00,56.3,51.0,30.11,South,170,4.0,13.0,81,0.00,,,0.00,weatherlink.com 1.10,2013-01-15 15:26:00,
2013-01-15 17:42:00,56.2,49.0,30.10,SW,222,5.0,14.0,78,0.00,,,0.00,weatherlink.com 1.10,2013-01-15 15:42:00,
2013-01-15 17:57:00,56.3,50.0,30.10,SSW,208,3.0,12.0,79,0.00,,,0.00,weatherlink.com 1.10,2013-01-15 15:57:00,
2013-01-15 18:12:00,56.4,49.0,30.09,South,169,7.0,14.0,76,0.00,,,0.00,weatherlink.com 1.10,2013-01-15 16:12:00,
2013-01-15 18:27:00,56.6,49.0,30.09,SSE,162,6.0,15.0,75,0.00,,,0.00,weatherlink.com 1.10,2013-01-15 16:27:00,
2013-01-15 18:42:00,56.6,49.0,30.09,SE,130,9.0,14.0,76,0.00,,,0.00,weatherlink.com 1.10,2013-01-15 16:42:00,
2013-01-15 18:57:00,56.6,49.0,30.09,SSW,208,5.0,13.0,75,0.00,,,0.00,weatherlink.com 1.10,2013-01-15 16:57:00,
2013-01-15 19:12:00,56.7,49.0,30.08,South,174,5.0,15.0,75,0.00,,,0.00,weatherlink.com 1.10,2013-01-15 17:12:00,
2013-01-15 19:27:00,56.7,48.0,30.08,SE,135,9.0,14.0,73,0.00,,,0.00,weatherlink.com 1.10,2013-01-15 17:27:00,
2013-01-15 19:42:00,56.6,49.0,30.08,SE,140,3.0,15.0,76,0.00,,,0.00,weatherlink.com 1.10,2013-01-15 17:42:00,
2013-01-15 19:57:00,56.7,50.0,30.09,SE,141,13.0,16.0,77,0.00,,,0.00,weatherlink.com 1.10,2013-01-15 17:57:00,
2013-01-15 20:12:00,56.7,50.0,30.08,SSE,150,6.0,13.0,79,0.00,,,0.00,weatherlink.com 1.10,2013-01-15 18:12:00,
2013-01-15 20:27:00,56.7,51.0,30.08,SSW,195,3.0,13.0,81,0.00,,,0.00,weatherlink.com 1.10,2013-01-15 18:27:00,
2013-01-15 20:42:00,56.6,52.0,30.07,SSE,148,12.0,18.0,83,0.00,,,0.00,weatherlink.com 1.10,2013-01-15 18:42:00,
2013-01-15 20:57:00,56.5,51.0,30.06,SE,144,9.0,19.0,81,0.00,,,0.00,weatherlink.com 1.10,2013-01-15 18:57:00,
2013-01-15 21:12:00,56.7,51.0,30.06,SSW,196,8.0,19.0,81,0.00,,,0.00,weatherlink.com 1.10,2013-01-15 19:12:00,
2013-01-15 21:27:00,56.1,51.0,30.06,NNW,344,3.0,13.0,84,0.00,,,0.00,weatherlink.com 1.10,2013-01-15 19:27:00,
2013-01-15 21:42:00,56.2,52.0,30.05,ESE,123,7.0,10.0,85,0.00,,,0.00,weatherlink.com 1.10,2013-01-15 19:42:00,
2013-01-15 21:57:00,56.7,52.0,30.05,East,101,9.0,18.0,85,0.00,,,0.00,weatherlink.com 1.10,2013-01-15 19:57:00,
2013-01-15 22:12:00,55.4,53.0,30.05,South,191,9.0,20.0,90,0.01,,,0.01,weatherlink.com 1.10,2013-01-15 20:12:00,
2013-01-15 22:27:00,55.3,52.0,30.04,South,171,6.0,15.0,89,0.01,,,0.01,weatherlink.com 1.10,2013-01-15 20:27:00,
2013-01-15 22:42:00,55.9,52.0,30.04,SSE,150,4.0,19.0,88,0.01,,,0.01,weatherlink.com 1.10,2013-01-15 20:42:00,
2013-01-15 22:57:00,55.9,52.0,30.03,SE,146,5.0,10.0,87,0.01,,,0.01,weatherlink.com 1.10,2013-01-15 20:57:00,
2013-01-15 23:12:00,56.4,53.0,30.02,South,175,2.0,13.0,87,0.01,,,0.02,weatherlink.com 1.10,2013-01-15 21:12:00,
2013-01-15 23:27:00,56.3,53.0,30.02,South,183,3.0,16.0,87,0.01,,,0.02,weatherlink.com 1.10,2013-01-15 21:27:00,
2013-01-15 23:42:00,55.6,52.0,30.02,SE,146,5.0,15.0,88,0.01,,,0.02,weatherlink.com 1.10,2013-01-15 21:42:00,
2013-01-15 23:57:00,55.5,52.0,30.02,South,184,4.0,14.0,89,0.01,,,0.02,weatherlink.com 1.10,2013-01-15 21:57:00,